Shenandoah, IA

11:41 AM CDT on April 22, 2018 (GMT -0500)
Shenandoah Municipal

Weather History for KSDA - April, 2013

Change the Weather History Date:

Tuesday, April 9, 2013

  Actual Average Record
Temperature  
Mean Temperature 56 °F -  
Max Temperature 71 °F 60 °F 86 °F (2011)
Min Temperature 41 °F 35 °F 21 °F (2003)
Degree Days  
Heating Degree Days 9    
Growing Degree Days 6 (Base 50)    
Moisture  
Dew Point 49 °F    
Average Humidity 80    
Maximum Humidity 87    
Minimum Humidity 69    
Precipitation  
Precipitation 0.18 in - - ()
Sea Level Pressure  
Sea Level Pressure 29.74 in    
Wind  
Wind Speed 12 mph (ENE)    
Max Wind Speed 22 mph    
Max Gust Speed 29 mph    
Visibility 9 miles    
Events Rain    
Averages and records for this station are not official NWS values.
T = Trace of Precipitation, MM = Missing Value Source: NWS Daily Summary

Daily Weather History Graph

Daily Weather History Graph

Search for Another Location

Airport or City:

Astronomy

Apr. 09, 2013 Rise Set
Actual Time 6:51 AM CDT 7:55 PM CDT
Civil Twilight 6:23 AM CDT 8:23 PM CDT
Nautical Twilight 5:50 AM CDT 8:56 PM CDT
Astronomical Twilight 5:15 AM CDT 9:31 PM CDT
Moon 6:15 AM CDT (4/9) 7:31 PM CDT (4/9)
Length of Visible Light 13h 59m
Length of Day
13h 03m
Waning Crescent, 1% of the Moon is Illuminated
Apr 9
Waning Crescent
Apr 10
New
Apr 18
First Quarter
Apr 25
Full
May 2
Last Quarter

Hourly Weather History & Observations

Time (CDT) Temp. Windchill Dew Point Humidity Pressure Visibility Wind Dir Wind Speed Gust Speed Precip Events Conditions
12:15 AM 62.6 °F - 57.2 °F 82% 29.70 in 10.0 mi SE 6.9 mph - N/A   Mostly Cloudy
12:35 AM 62.6 °F - 55.4 °F 77% 29.70 in 7.0 mi SE 5.8 mph - N/A   Overcast
12:55 AM 62.6 °F - 55.4 °F 77% 29.70 in 7.0 mi SE 6.9 mph - N/A   Overcast
1:15 AM 60.8 °F - 55.4 °F 82% 29.69 in 7.0 mi SE 9.2 mph - N/A   Scattered Clouds
1:35 AM 60.8 °F - 55.4 °F 82% 29.67 in 7.0 mi SE 8.1 mph - N/A   Scattered Clouds
1:55 AM 60.8 °F - 55.4 °F 82% 29.66 in 7.0 mi SE 9.2 mph - N/A   Mostly Cloudy
2:15 AM 60.8 °F - 55.4 °F 82% 29.65 in 7.0 mi ESE 9.2 mph - N/A   Scattered Clouds
2:35 AM 60.8 °F - 55.4 °F 82% 29.65 in 7.0 mi SE 8.1 mph - N/A   Scattered Clouds
2:55 AM 60.8 °F - 55.4 °F 82% 29.65 in 7.0 mi SE 8.1 mph - N/A   Mostly Cloudy
3:15 AM 60.8 °F - 55.4 °F 82% 29.64 in 10.0 mi SE 9.2 mph - N/A   Overcast
3:35 AM 62.6 °F - 55.4 °F 77% 29.64 in 10.0 mi ESE 9.2 mph - N/A   Overcast
3:55 AM 62.6 °F - 55.4 °F 77% 29.64 in 10.0 mi ESE 8.1 mph - N/A   Overcast
4:15 AM 62.6 °F - 55.4 °F 77% 29.64 in 10.0 mi ESE 9.2 mph - N/A   Overcast
4:35 AM 62.6 °F - 55.4 °F 77% 29.63 in 10.0 mi ESE 10.4 mph - N/A   Overcast
4:55 AM 62.6 °F - 55.4 °F 77% 29.63 in 10.0 mi SE 9.2 mph - N/A   Overcast
5:15 AM 62.6 °F - 55.4 °F 77% 29.63 in 10.0 mi SE 12.7 mph - N/A   Overcast
5:35 AM 62.6 °F - 55.4 °F 77% 29.63 in 10.0 mi SE 11.5 mph - N/A   Overcast
5:55 AM 62.6 °F - 55.4 °F 77% 29.63 in 10.0 mi SSE 12.7 mph - N/A   Overcast
6:15 AM 62.6 °F - 55.4 °F 77% 29.64 in 10.0 mi SSE 13.8 mph - N/A   Overcast
6:35 AM 62.6 °F - 55.4 °F 77% 29.67 in 10.0 mi South 9.2 mph - N/A   Overcast
7:15 AM 62.6 °F - 55.4 °F 77% 29.68 in 10.0 mi SSE 11.5 mph - N/A   Drizzle
7:35 AM 62.6 °F - 55.4 °F 77% 29.68 in 7.0 mi SSE 12.7 mph - N/A   Light Drizzle
7:55 AM 62.6 °F - 55.4 °F 77% 29.68 in 7.0 mi SSE 11.5 mph - N/A   Mostly Cloudy
8:15 AM 62.6 °F - 55.4 °F 77% 29.68 in 10.0 mi SSE 15.0 mph - N/A   Mostly Cloudy
8:35 AM 62.6 °F - 57.2 °F 82% 29.69 in 10.0 mi SSE 11.5 mph - N/A   Scattered Clouds
8:55 AM 64.4 °F - 57.2 °F 77% 29.68 in 10.0 mi SSE 16.1 mph - N/A   Clear
9:15 AM 66.2 °F - 57.2 °F 73% 29.69 in 10.0 mi South 17.3 mph 20.7 mph N/A   Clear
9:35 AM 66.2 °F - 57.2 °F 73% 29.69 in 10.0 mi South 17.3 mph 24.2 mph N/A   Scattered Clouds
9:55 AM 66.2 °F - 59.0 °F 78% 29.70 in 10.0 mi South 16.1 mph - N/A   Scattered Clouds
10:15 AM 66.2 °F - 59.0 °F 78% 29.70 in 10.0 mi South 17.3 mph - N/A   Scattered Clouds
10:35 AM 68.0 °F - 59.0 °F 73% 29.70 in 10.0 mi South 17.3 mph 25.3 mph N/A   Scattered Clouds
10:55 AM 69.8 °F - 60.8 °F 73% 29.70 in 10.0 mi South 16.1 mph 23.0 mph N/A   Scattered Clouds
11:15 AM 71.6 °F - 60.8 °F 69% 29.70 in 10.0 mi South 17.3 mph - N/A   Mostly Cloudy
11:35 AM 69.8 °F - 60.8 °F 73% 29.71 in 10.0 mi SSW 17.3 mph - N/A   Overcast
11:55 AM 57.2 °F - 51.8 °F 82% 29.73 in 10.0 mi NNW 16.1 mph - N/A   Overcast
12:15 PM 53.6 °F - 48.2 °F 82% 29.75 in 10.0 mi NNW 13.8 mph 18.4 mph N/A   Overcast
12:35 PM 51.8 °F - 46.4 °F 82% 29.76 in 10.0 mi NNW 10.4 mph 16.1 mph N/A   Overcast
12:55 PM 51.8 °F - 46.4 °F 82% 29.77 in 10.0 mi North 10.4 mph 17.3 mph N/A   Overcast
1:15 PM 50.0 °F - 44.6 °F 82% 29.76 in 10.0 mi North 12.7 mph 18.4 mph N/A   Overcast
1:35 PM 48.2 °F - 44.6 °F 87% 29.76 in 7.0 mi North 17.3 mph 21.9 mph N/A   Overcast
1:55 PM 48.2 °F - 42.8 °F 82% 29.77 in 7.0 mi North 16.1 mph 21.9 mph N/A Rain Light Rain
2:15 PM 48.2 °F - 42.8 °F 82% 29.78 in 4.0 mi North 18.4 mph 23.0 mph N/A   Haze
2:35 PM 48.2 °F - 42.8 °F 82% 29.78 in 10.0 mi North 18.4 mph - N/A   Overcast
2:55 PM 46.4 °F 40.1 °F 42.8 °F 87% 29.79 in 10.0 mi North 15.0 mph 20.7 mph N/A   Overcast
3:15 PM 46.4 °F 40.4 °F 41.0 °F 81% 29.79 in 7.0 mi North 13.8 mph - N/A   Drizzle
3:35 PM 46.4 °F 39.8 °F 41.0 °F 81% 29.77 in 5.0 mi NNE 16.1 mph 24.2 mph N/A Rain Light Rain
3:55 PM 46.4 °F 39.5 °F 41.0 °F 81% 29.77 in 7.0 mi NNE 17.3 mph 24.2 mph N/A   Overcast
4:15 PM 46.4 °F 39.5 °F 41.0 °F 81% 29.77 in 7.0 mi NNE 17.3 mph - N/A   Overcast
4:35 PM 44.6 °F 37.2 °F 41.0 °F 87% 29.78 in 10.0 mi NNE 17.3 mph - N/A   Overcast
4:55 PM 44.6 °F 37.2 °F 39.2 °F 81% 29.77 in 10.0 mi NNE 17.3 mph 21.9 mph N/A   Overcast
5:15 PM 44.6 °F 37.2 °F 39.2 °F 81% 29.76 in 10.0 mi NNE 17.3 mph 20.7 mph N/A   Light Drizzle
5:35 PM 44.6 °F 38.1 °F 39.2 °F 81% 29.77 in 10.0 mi NE 13.8 mph 18.4 mph N/A Rain Light Rain
5:55 PM 44.6 °F 38.8 °F 39.2 °F 81% 29.80 in 10.0 mi NNE 11.5 mph - N/A   Overcast
6:15 PM 44.6 °F 36.4 °F 39.2 °F 81% 29.77 in 10.0 mi NE 20.7 mph - 0.01 in Rain Rain
6:35 PM 44.6 °F 37.2 °F 39.2 °F 81% 29.77 in 10.0 mi NNE 17.3 mph 20.7 mph 0.02 in   Overcast
6:55 PM 44.6 °F 38.4 °F 39.2 °F 81% 29.78 in 10.0 mi NNE 12.7 mph 24.2 mph 0.02 in   Overcast
7:15 PM 44.6 °F 37.8 °F 39.2 °F 81% 29.79 in 10.0 mi NNE 15.0 mph 19.6 mph N/A   Overcast
7:35 PM 44.6 °F 39.2 °F 39.2 °F 81% 29.83 in 10.0 mi North 10.4 mph - N/A   Overcast
7:55 PM 44.6 °F 38.8 °F 39.2 °F 81% 29.85 in 10.0 mi NNW 11.5 mph - 0.02 in Rain Rain
8:15 PM 42.8 °F 36.2 °F 39.2 °F 87% 29.84 in 10.0 mi North 12.7 mph - 0.06 in Rain Rain
8:35 PM 42.8 °F 35.4 °F 39.2 °F 87% 29.83 in 10.0 mi NNE 15.0 mph - 0.06 in Rain Light Rain
8:55 PM 42.8 °F 35.8 °F 37.4 °F 81% 29.82 in 7.0 mi NNE 13.8 mph - 0.09 in Rain Heavy Rain
9:15 PM 42.8 °F 35.8 °F 37.4 °F 81% 29.84 in 10.0 mi NNE 13.8 mph - N/A Rain Light Rain
9:55 PM 42.8 °F 36.2 °F 37.4 °F 81% 29.89 in 10.0 mi North 12.7 mph 17.3 mph 0.02 in Rain Light Rain
10:15 PM 42.8 °F 35.8 °F 37.4 °F 81% 29.89 in 7.0 mi North 13.8 mph 18.4 mph N/A   Light Drizzle
10:35 PM 42.8 °F 34.8 °F 37.4 °F 81% 29.89 in 10.0 mi North 17.3 mph 23.0 mph 0.02 in Rain Light Rain
10:55 PM 41.0 °F 33.1 °F 37.4 °F 87% 29.89 in 10.0 mi North 15.0 mph 23.0 mph 0.03 in Rain Light Rain
11:15 PM 41.0 °F 31.4 °F 37.4 °F 87% 29.85 in 10.0 mi NNE 21.9 mph 25.3 mph N/A   Light Drizzle
11:59 PM 42.8 °F 34.0 °F 37.4 °F 81% 29.86 in 10.0 mi NNE 20.7 mph 28.8 mph N/A   Overcast